This demonstration page uses our WeatherBlox Daily Observations layout. Learn more.

Hourly Observations for July 10, 2015

Temp ( °F °C ) Dew Point ( °F °C ) Humidity (%) Winds ( mph kmh ) Pressure ( in mb ) Visibility ( mi km ) Precip ( " mm )
12:15 am 00:15 Clear 65 18.5 58 14.7 79 79 S 9 15 29.97 1015 10 16.0934 0 0
12:35 am 00:35 Clear 67 19.2 59 15 77 77 S 10 17 29.97 1015 10 16.0934 0 0
12:55 am 00:55 Mostly Cloudy 67 19.2 60 15.3 78 78 SSE 8 13 29.97 1015 10 16.0934 0 0
1:15 am 01:15 Partly Cloudy 66 18.8 60 15.3 80 80 SSE 7 11 29.97 1015 10 16.0934 0 0
1:35 am 01:35 Clear 65 18.2 60 15.3 83 83 SSE 7 11 29.97 1015 10 16.0934 0 0
1:55 am 01:55 Clear 64 17.7 60 15.3 86 86 SSE 6 9 29.97 1015 10 16.0934 0 0
2:15 am 02:15 Clear 63 17.3 59 15.2 88 88 SSE 6 9 29.94 1014 10 16.0934 0 0
2:35 am 02:35 Clear 63 17.2 59 15.2 88 88 SSE 6 9 29.94 1014 10 16.0934 0 0
2:55 am 02:55 Clear 63 17.3 60 15.5 89 89 SSE 5 7 29.94 1014 10 16.0934 0 0
3:15 am 03:15 Clear 63 17 60 15.3 90 90 SSE 6 9 29.94 1014 10 16.0934 0 0
3:35 am 03:35 Clear 63 17.1 60 15.6 91 91 SSE 6 9 29.97 1015 10 16.0934 0 0
3:55 am 03:55 Clear 63 17.1 60 15.7 92 92 SE 7 11 29.97 1015 10 16.0934 0 0
4:15 am 04:15 Clear 63 17.1 60 15.8 92 92 SE 6 9 29.97 1015 7 11.26538 0 0
4:35 am 04:35 Clear 63 17.1 61 16 93 93 SE 5 7 29.97 1015 7 11.26538 0 0
4:55 am 04:55 Partly Cloudy 63 17.1 61 16 93 93 SE 5 7 29.94 1014 7 11.26538 0 0
5:15 am 05:15 Partly Cloudy 62 16.8 60 15.8 94 94 SE 6 9 29.94 1014 7 11.26538 0 0
5:35 am 05:35 Mostly Cloudy 63 17.1 61 16.1 94 94 SE 5 7 29.94 1014 7 11.26538 0 0
5:55 am 05:55 Mostly Cloudy with Mist and Fog 63 17.2 61 16.2 94 94 SSE 6 9 29.94 1014 5 8.0467 0 0
6:15 am 06:15 Partly Cloudy 64 17.8 62 16.9 95 95 SE 7 11 29.94 1014 7 11.26538 0 0
6:35 am 06:35 Sunny with Mist and Fog 64 17.6 62 16.6 94 94 SE 6 9 29.94 1014 4 6.43736 0 0
6:55 am 06:55 Sunny with Mist and Fog 64 17.7 62 16.9 95 95 SE 6 9 29.94 1014 4 6.43736 0 0
7:15 am 07:15 Mostly Cloudy with Mist and Fog 66 18.7 64 17.8 95 95 SE 12 19 29.94 1014 5 8.0467 0 0
7:35 am 07:35 Cloudy with Mist and Fog 66 19.1 65 18.1 94 94 SE 10 17 29.94 1014 5 8.0467 0 0
7:55 am 07:55 Cloudy with Mist and Fog 67 19.3 65 18.2 93 93 SSE 10 17 29.94 1014 5 8.0467 0 0
8:15 am 08:15 Cloudy 68 20 66 18.7 92 92 SSE 9 15 29.91 1013 7 11.26538 0 0
8:35 am 08:35 Partly Cloudy 68 20.2 65 18.5 90 90 SSE 6 9 29.91 1013 10 16.0934 0 0
8:55 am 08:55 Partly Cloudy 69 20.8 66 18.7 88 88 SE 9 15 29.91 1013 10 16.0934 0 0
9:15 am 09:15 Sunny 70 21.2 66 18.8 86 86 SSE 8 13 29.91 1013 10 16.0934 0 0
9:35 am 09:35 Mostly Cloudy 71 21.9 66 18.8 83 83 SSE 13 20 29.91 1013 10 16.0934 0 0
9:55 am 09:55 Cloudy 72 22 66 18.9 83 83 SE 10 17 29.91 1013 10 16.0934 0 0
10:15 am 10:15 Cloudy 73 22.6 66 19.1 81 81 SSE 13 20 29.91 1013 10 16.0934 0 0
10:35 am 10:35 Cloudy 74 23.4 66 18.9 76 76 SSE 13 20 29.91 1013 10 16.0934 0 0
10:55 am 10:55 Mostly Cloudy 75 23.8 66 18.9 74 74 S 9 15 29.88 1012 10 16.0934 0 0
11:15 am 11:15 Mostly Cloudy 75 23.7 66 19 75 75 SSE 13 20 29.88 1012 10 16.0934 0 0
11:35 am 11:35 Mostly Cloudy 75 23.8 66 18.7 73 73 SSE 14 22 29.88 1012 10 16.0934 0 0
11:55 am 11:55 Partly Cloudy 75 24.1 65 18.4 71 71 SSE 16 26 29.88 1012 10 16.0934 0 0
12:15 pm 12:15 Mostly Cloudy 75 23.8 66 18.7 73 73 SSE 13 20 29.88 1012 10 16.0934 0 0
12:35 pm 12:35 Mostly Cloudy 75 24.1 66 18.8 72 72 SSE 18 30 29.88 1012 10 16.0934 0 0
12:55 pm 12:55 Partly Cloudy 77 24.8 66 18.9 70 70 SSE 18 30 29.88 1012 10 16.0934 0 0
1:15 pm 13:15 Partly Cloudy 76 24.5 65 18.1 68 68 SSE 17 28 29.88 1012 10 16.0934 0 0
1:35 pm 13:35 Partly Cloudy 77 24.9 66 19 70 70 SE 14 22 29.88 1012 10 16.0934 0 0
1:55 pm 13:55 Partly Cloudy 78 25.5 65 18.5 65 65 SSE 15 24 29.88 1012 10 16.0934 0 0
2:15 pm 14:15 Partly Cloudy 77 24.9 65 18.5 68 68 SSE 14 22 29.85 1011 10 16.0934 0 0
2:35 pm 14:35 Partly Cloudy 78 25.6 65 18.6 65 65 SSE 14 22 29.85 1011 10 16.0934 0 0
2:55 pm 14:55 Partly Cloudy 80 26.5 66 18.7 62 62 S 18 30 29.83 1010 10 16.0934 0 0
3:15 pm 15:15 Mostly Cloudy 81 27.1 66 18.7 60 60 S 15 24 29.83 1010 10 16.0934 0 0
3:35 pm 15:35 Partly Cloudy 81 27.2 66 18.7 60 60 SSE 13 20 29.83 1010 10 16.0934 0 0
3:55 pm 15:55 Partly Cloudy 83 28.1 66 18.7 57 57 SSE 15 24 29.8 1009 10 16.0934 0 0
4:15 pm 16:15 Partly Cloudy 83 28.5 65 18.4 54 54 SSE 18 30 29.8 1009 10 16.0934 0 0
4:35 pm 16:35 Partly Cloudy 83 28.5 64 18 53 53 SE 20 31 29.8 1009 10 16.0934 0 0
4:55 pm 16:55 Partly Cloudy 83 28.4 63 17.4 51 51 SE 20 31 29.8 1009 10 16.0934 0 0
5:15 pm 17:15 Partly Cloudy 84 28.9 65 18.2 52 52 SE 18 30 29.8 1009 10 16.0934 0 0
5:35 pm 17:35 Partly Cloudy 81 27.1 65 18.3 59 59 SE 14 22 29.8 1009 10 16.0934 0 0
5:55 pm 17:55 Sunny 83 28.2 65 18.6 56 56 SE 18 30 29.8 1009 10 16.0934 0 0
6:15 pm 18:15 Sunny 83 28.2 65 18.5 56 56 SE 18 30 29.77 1008 10 16.0934 0 0
6:35 pm 18:35 Partly Cloudy 82 28 65 18.4 56 56 SE 20 31 29.77 1008 10 16.0934 0 0
6:55 pm 18:55 Sunny 82 27.8 65 18.3 56 56 SE 20 31 29.77 1008 10 16.0934 0 0
7:15 pm 19:15 Sunny 81 27.4 65 18.3 58 58 SE 16 26 29.77 1008 10 16.0934 0 0
7:35 pm 19:35 Sunny 81 27.1 65 18.1 58 58 SE 16 26 29.77 1008 10 16.0934 0 0
7:55 pm 19:55 Sunny 79 26.1 65 18.2 62 62 SE 17 28 29.77 1008 10 16.0934 0 0
8:15 pm 20:15 Sunny 78 25.7 65 18.2 63 63 SE 14 22 29.83 1010 10 16.0934 0 0
8:35 pm 20:35 Sunny 77 25.1 65 18.5 67 67 SE 14 22 29.8 1009 10 16.0934 0 0
8:55 pm 20:55 Sunny 76 24.7 65 18.6 69 69 ESE 9 15 29.83 1010 10 16.0934 0 0
9:15 pm 21:15 Clear 75 24.1 66 19 73 73 ESE 10 17 29.83 1010 10 16.0934 0 0
9:35 pm 21:35 Clear 75 23.7 67 19.2 76 76 ESE 7 11 29.83 1010 10 16.0934 0 0
9:55 pm 21:55 Clear 74 23.1 67 19.5 80 80 ESE 10 17 29.83 1010 10 16.0934 0 0
10:15 pm 22:15 Clear with Thunderstorms 75 23.8 68 20 79 79 SE 13 20 29.85 1011 10 16.0934 0 0
10:35 pm 22:35 Partly Cloudy with Light Rain 74 23.6 68 20.2 81 81 ESE 12 19 29.85 1011 10 16.0934 0 0
10:55 pm 22:55 Clear with Light Thunderstorms 74 23.2 69 20.5 85 85 ESE 10 17 29.85 1011 10 16.0934 0 0
11:15 pm 23:15 Clear with Thunderstorms 73 23 69 20.7 87 87 ESE 8 13 29.85 1011 10 16.0934 0 0
11:35 pm 23:35 Partly Cloudy 73 22.6 69 20.6 89 89 E 7 11 29.85 1011 10 16.0934 0 0
11:55 pm 23:55 Mostly Cloudy with Thunderstorms 72 22.4 69 20.7 90 90 NW 15 24 29.91 1013 5 8.0467 0.03 0.762

Powered by AerisWeather